Location: Bannatyne
(13.0833°N, 59.5333°W)
Time: 20:58:35
(UTC+00:00)

Explorer 7 - Pass Details

Date: 25 January 2020
Orbit: 485 x 679 km, 50.3° (Epoch: 26 February)

Event Time Altitude Azimuth Distance (km) Brightness Sun altitude
Rises 01:34:51 0° 258° (WSW) 2,650 - -52.3°
Reaches altitude 10° 01:38:27 10° 292° (WNW) 1,719 - -53.1°
Maximum altitude 01:39:51 12° 313° (NW) 1,605 - -53.4°
Drops below altitude 10° 01:41:14 10° 334° (NNW) 1,692 - -53.8°
Sets 01:44:43 0° 9° (N) 2,548 - -54.6°
